Vorticity
3 4 5 4 5 5 4 5 6 7 7 7 6 6 4 3 6 7 6 5 5 4 3 2 2 3 3 2 8 8 4 -0 -1 6 4 -1 4 19 6 6 10 1 0 9 26 11 5
8 8 5 6 6 5 5 5 5 4 4 4 4 4 6 6 5 4 5 5 5 4 3 3 2 3 2 -7 4 5 0 9 10 3 4 3 8 11 5 13 13 9 13 9 12 19 11
3 5 5 1 9 11 7 7 6 6 6 5 6 6 5 4 4 5 4 4 4 3 2 3 2 4 3 5 3 6 8 4 2 6 3 17 13 8 9 13 35 21 9 3 11 14 18
6 9 9 10 6 -1 6 8 5 6 7 6 5 4 2 3 3 3 3 4 4 4 3 3 3 4 1 3 7 4 16 12 26 24 22 25 20 14 8 7 -18 -15 -13 -4 8 17 16
4 6 -0 4 4 5 8 6 3 1 10 7 19 11 5 7 6 2 5 2 1 4 4 3 3 3 14 21 37 25 29 50 33 24 18 11 10 11 20 11 8 27 -3 2 15 13 6
11 15 9 5 7 6 6 -4 -0 2 6 4 4 6 11 7 11 12 12 7 4 4 6 9 14 13 -10 -15 48 25 11 -16 -8 -6 -14 8 15 15 25 19 -21 13 17 -1 -7 9 -1
13 -0 -2 16 6 11 12 7 4 6 5 4 1 7 11 11 21 -13 26 14 18 17 1 6 -3 2 -0 -16 -6 15 12 9 8 1 0 9 16 -10 -5 1 21 -6 -32 -9 6 7 -1
10 5 23 16 10 4 16 18 14 8 13 15 13 9 17 25 -9 2 -6 35 -2 -11 8 7 11 1 8 10 15 -7 -16 -20 -9 -3 11 17 -1 9 16 20 8 8 7 7 7 1 15
14 13 10 9 4 10 10 8 11 19 9 10 6 11 -0 17 3 2 11 21 10 7 13 10 12 12 17 18 9 18 20 12 9 11 10 5 -12 16 46 1 11 2 0 3 1 1 -0
7 8 12 13 14 11 14 11 11 10 10 15 22 18 12 15 34 26 23 -4 14 13 14 49 3 23 27 65 25 31 34 27 25 20 -5 -5 36 -17 -21 2 21 6 24 18 13 4 -9
19 15 15 15 15 10 8 7 8 6 6 8 8 13 14 17 11 4 2 7 15 18 11 30 52 43 34 -1 24 21 7 58 13 6 33 -5 6 28 13 11 -6 -23 15 13 26 21 24
21 26 30 32 32 28 17 18 21 17 14 10 10 7 10 14 17 16 17 10 13 30 17 13 8 14 3 11 8 -6 2 12 18 32 11 -1 8 -10 9 7 7 7 13 16 13 21 44
11 9 7 7 7 15 23 33 36 24 25 27 26 20 14 8 7 11 13 22 23 -11 21 33 4 9 13 23 10 2 -23 11 -6 33 28 6 15 11 -24 -12 -5 12 8 37 40 31 -12
10 8 6 6 6 6 6 5 7 4 24 25 24 23 24 27 19 15 19 22 -6 39 -21 -27 26 6 3 2 14 35 35 -4 6 -9 28 12 54 74 42 52 16 11 20 -64 10 20 33
7 8 8 8 8 9 10 10 9 6 4 4 4 12 19 16 29 47 18 11 4 5 18 21 -2 10 -6 5 1 2 -6 27 27 23 -13 6 31 22 -1 28 6 44 25 17 2 25 41
14 11 11 12 16 15 15 15 17 16 14 13 11 8 9 9 10 15 6 -8 23 14 -1 48 22 4 7 7 22 16 27 34 27 11 9 16 11 23 14 -15 30 1 25 24 36 19 21
18 18 15 13 11 11 12 11 13 10 13 13 13 15 16 19 17 7 0 -3 13 -40 -19 -2 -13 -4 11 0 -15 5 9 -15 -4 -9 1 2 11 4 28 18 16 18 7 -1 4 17 12
9 9 9 9 8 7 7 6 7 11 7 7 7 8 16 15 13 10 16 11 13 17 53 -6 24 20 20 19 1 26 -3 2 10 16 9 16 17 15 4 0 13 2 15 22 -12 15 6
12 12 11 11 12 11 11 11 10 8 5 9 5 6 6 6 6 5 2 5 12 11 24 15 -3 8 -17 -2 15 43 23 25 7 7 13 10 16 4 15 38 33 18 15 22 19 1 1
14 17 19 19 16 13 14 17 17 16 11 6 7 0 37 10 -2 -1 22 7 9 10 1 10 9 6 3 7 6 -7 8 13 16 6 15 8 18 -19 -9 -14 14 22 42 8 -2 9 10
12 10 10 13 13 12 13 13 10 15 24 8 7 2 -11 1 32 9 -2 -19 -6 7 7 8 8 7 12 5 12 20 24 20 24 25 13 17 8 21 -27 8 8 -2 3 11 7 1 -9
10 9 10 10 13 13 16 19 12 14 14 11 7 1 6 -1 -1 -16 5 27 31 24 14 15 14 19 6 12 23 -11 -2 6 0 -5 -13 18 4 15 8 -8 2 17 11 -1 -1 -0 6
14 15 11 9 10 10 7 9 11 16 15 15 4 16 -8 16 12 8 9 1 3 0 -2 -0 6 10 8 6 9 14 11 19 15 13 23 1 13 22 32 41 21 34 9 5 12 19 11
11 15 18 16 16 13 15 18 19 18 19 16 12 8 18 -5 3 2 0 0 7 8 2 14 25 10 9 6 9 10 31 3 4 8 19 8 -4 38 9 2 10 22 22 10 8 8 8
11 19 18 14 8 20 13 24 28 22 24 20 17 10 6 4 17 7 3 7 16 28 13 9 12 4 15 17 11 5 34 29 22 27 17 13 23 -8 4 -0 -17 3 25 13 11 1 1
12 16 10 8 5 24 17 18 27 28 29 15 17 14 13 2 3 14 20 18 13 -2 4 7 19 43 13 14 24 11 2 -0 16 11 17 27 14 -13 3 2 5 -9 8 36 17 17 19
10 7 19 11 13 17 17 15 33 22 26 29 14 21 11 24 0 1 -5 -4 8 21 9 -7 -3 46 -7 5 0 10 4 -2 15 14 9 -0 13 24 18 2 16 3 7 13 13 -6 12
19 14 15 15 17 10 15 18 24 20 24 34 18 15 13 9 4 11 -10 10 12 17 16 7 71 22 26 7 16 11 9 -1 13 6 39 39 37 27 16 9 15 1 12 13 -8 -6 1
9 12 13 11 16 13 11 15 21 17 21 22 22 18 9 17 13 26 37 21 23 8 2 6 12 22 41 6 12 10 6 5 11 13 7 -3 13 13 10 -7 11 4 7 9 -5 -1 9
Height
3101 3101 3101 3100 3100 3100 3100 3100 3100 3099 3099 3099 3099 3099 3100 3099 3099 3100 3099 3100 3099 3100 3099 3098 3098 3095 3088 3081 3084 3104 3101 3100 3101 3098 3097 3098 3095 3094 3087 3089 3089 3084 3083 3082 3081 3079 3078
3091 3091 3091 3091 3091 3090 3090 3091 3091 3091 3091 3092 3092 3092 3091 3091 3091 3091 3092 3092 3092 3091 3090 3090 3091 3087 3077 3061 3077 3093 3093 3090 3093 3088 3087 3090 3085 3088 3078 3077 3079 3076 3075 3072 3071 3067 3069
3081 3081 3081 3081 3081 3080 3080 3080 3081 3082 3082 3082 3082 3083 3083 3082 3083 3083 3083 3083 3084 3083 3082 3082 3081 3076 3061 3052 3064 3081 3080 3080 3078 3073 3070 3078 3075 3074 3072 3069 3070 3069 3064 3063 3058 3059 3059
3070 3070 3070 3070 3070 3069 3069 3069 3069 3070 3071 3072 3072 3072 3072 3073 3073 3074 3074 3074 3074 3073 3073 3072 3071 3065 3042 3042 3057 3067 3070 3065 3064 3062 3058 3065 3065 3061 3061 3062 3062 3062 3059 3050 3048 3052 3053
3059 3059 3059 3057 3058 3057 3057 3057 3058 3058 3059 3060 3060 3060 3060 3061 3062 3063 3065 3064 3063 3063 3062 3061 3059 3058 3035 3033 3049 3055 3054 3053 3051 3052 3052 3054 3053 3051 3053 3056 3057 3053 3034 3040 3043 3046 3046
3044 3044 3045 3046 3044 3044 3043 3044 3044 3044 3045 3046 3046 3048 3049 3048 3049 3051 3053 3052 3049 3049 3047 3048 3044 3047 3030 3034 3041 3045 3047 3047 3048 3045 3046 3048 3043 3039 3040 3045 3032 3032 3032 3034 3037 3042 3040
3032 3030 3028 3029 3030 3030 3029 3029 3029 3030 3031 3032 3032 3032 3034 3037 3038 3039 3042 3040 3039 3034 3029 3028 3028 3022 3028 3032 3029 3035 3039 3039 3039 3038 3038 3043 3034 3023 3028 3027 3028 3032 3030 3026 3031 3036 3035
3018 3017 3017 3017 3017 3017 3015 3014 3014 3016 3016 3017 3019 3018 3020 3023 3025 3028 3029 3027 3024 3021 3013 3013 3014 3008 3013 3023 3014 3016 3029 3026 3028 3026 3031 3031 3010 3019 3025 3024 3024 3025 3021 3017 3025 3032 3032
3005 3005 3004 3002 3003 3004 3004 3002 3002 3003 3003 3003 3004 3005 3006 3009 3014 3014 3016 3013 3013 3011 3002 2994 2992 2994 3004 3007 2994 2995 3015 3013 3010 3014 3020 3015 3004 3017 3015 3016 3020 3018 3011 3018 3016 3025 3021
2992 2990 2990 2990 2990 2989 2989 2989 2991 2991 2991 2991 2991 2992 2994 2994 3002 2999 2999 3001 3001 3005 2987 2981 2980 2974 2984 2991 2973 2987 2990 2995 2996 2996 3011 3002 3000 3004 3008 3002 3016 3008 3012 3010 3012 3019 3010
2980 2978 2979 2979 2978 2977 2976 2978 2977 2978 2979 2980 2980 2981 2982 2982 2986 2987 2988 2990 2991 2994 2977 2972 2970 2974 2977 2973 2980 2979 2978 2979 2979 2983 2995 2964 2984 2991 2991 2985 3008 2987 3011 3007 3007 3005 3005
2971 2969 2969 2968 2967 2964 2965 2965 2965 2964 2967 2965 2967 2968 2971 2972 2974 2977 2978 2981 2984 2979 2964 2964 2962 2963 2967 2964 2970 2974 2973 2973 2976 2980 2982 2968 2984 2982 2982 2989 2997 2994 3000 2999 2998 2998 2992
2964 2964 2962 2961 2960 2957 2956 2955 2955 2955 2955 2954 2955 2957 2957 2959 2965 2967 2969 2973 2973 2961 2956 2957 2957 2953 2959 2960 2959 2963 2965 2964 2968 2971 2970 2964 2964 2969 2980 2979 2985 2988 2988 2985 2982 2978 2963
2958 2957 2957 2954 2952 2952 2949 2951 2951 2949 2947 2947 2947 2945 2945 2948 2952 2957 2958 2962 2955 2949 2950 2949 2952 2950 2951 2949 2950 2950 2953 2956 2959 2959 2958 2959 2957 2962 2966 2969 2971 2973 2977 2974 2962 2961 2958
2951 2951 2950 2946 2946 2944 2944 2944 2944 2943 2943 2942 2942 2940 2939 2941 2942 2946 2949 2946 2941 2944 2945 2944 2946 2944 2943 2942 2945 2943 2945 2946 2947 2950 2950 2947 2947 2953 2953 2957 2959 2961 2960 2963 2959 2956 2957
2944 2942 2941 2939 2938 2939 2937 2937 2937 2937 2936 2936 2934 2934 2937 2936 2937 2940 2941 2936 2937 2938 2937 2937 2937 2937 2938 2938 2939 2939 2938 2940 2941 2943 2942 2941 2946 2946 2949 2949 2953 2948 2951 2954 2947 2946 2937
2936 2935 2935 2934 2933 2932 2932 2931 2932 2932 2931 2929 2930 2929 2932 2931 2934 2935 2933 2930 2933 2934 2932 2934 2933 2934 2934 2935 2935 2937 2936 2938 2938 2938 2939 2942 2943 2945 2944 2945 2950 2946 2941 2946 2949 2938 2939
2932 2931 2929 2928 2927 2926 2926 2927 2927 2928 2928 2926 2925 2926 2928 2929 2931 2927 2927 2929 2933 2931 2932 2932 2930 2931 2931 2932 2931 2934 2933 2935 2937 2936 2937 2938 2940 2942 2941 2941 2942 2942 2938 2939 2939 2940 2934
2928 2925 2924 2922 2921 2920 2919 2919 2920 2921 2923 2922 2919 2920 2924 2925 2923 2924 2924 2926 2927 2928 2929 2930 2928 2930 2929 2930 2932 2929 2930 2932 2933 2934 2934 2935 2935 2936 2937 2936 2934 2930 2934 2936 2933 2935 2932
2922 2919 2917 2916 2914 2913 2912 2912 2913 2914 2916 2917 2916 2915 2917 2918 2918 2920 2921 2921 2923 2924 2925 2926 2926 2926 2927 2927 2928 2927 2927 2929 2929 2930 2931 2930 2928 2926 2927 2925 2924 2929 2931 2930 2928 2932 2927
2918 2915 2912 2909 2907 2907 2906 2905 2905 2907 2908 2910 2908 2906 2911 2912 2913 2914 2917 2917 2918 2920 2921 2923 2921 2922 2924 2923 2923 2922 2924 2925 2926 2926 2928 2928 2921 2922 2922 2923 2923 2924 2926 2925 2923 2924 2924
2913 2910 2907 2904 2902 2899 2898 2898 2898 2899 2900 2897 2899 2900 2904 2907 2910 2910 2911 2910 2913 2915 2917 2916 2917 2918 2918 2917 2919 2919 2920 2920 2920 2922 2921 2920 2918 2919 2915 2916 2915 2917 2920 2920 2919 2915 2916
2909 2905 2902 2899 2896 2894 2892 2890 2889 2891 2891 2887 2890 2893 2897 2899 2902 2905 2905 2907 2908 2911 2911 2912 2912 2912 2911 2913 2913 2913 2913 2913 2913 2913 2914 2915 2915 2911 2909 2909 2911 2913 2911 2911 2909 2909 2910
2905 2900 2896 2893 2890 2887 2883 2880 2879 2879 2880 2881 2882 2887 2890 2892 2896 2898 2901 2903 2904 2904 2904 2904 2906 2905 2908 2907 2907 2907 2906 2907 2906 2907 2906 2906 2908 2906 2906 2908 2910 2904 2902 2902 2902 2902 2901
2901 2896 2891 2888 2885 2880 2876 2872 2869 2868 2870 2871 2875 2879 2882 2886 2890 2892 2895 2897 2898 2897 2898 2899 2900 2901 2902 2903 2903 2901 2902 2902 2900 2900 2899 2899 2902 2904 2903 2903 2902 2897 2896 2899 2897 2897 2895
2898 2893 2889 2885 2881 2875 2871 2866 2862 2860 2862 2864 2867 2873 2878 2881 2883 2888 2890 2892 2892 2892 2893 2892 2894 2893 2895 2897 2896 2894 2897 2898 2897 2896 2894 2895 2897 2898 2899 2897 2896 2893 2892 2893 2893 2889 2887
2896 2892 2887 2883 2878 2873 2868 2862 2857 2857 2857 2858 2861 2868 2874 2875 2880 2883 2885 2887 2888 2888 2887 2887 2886 2885 2887 2889 2889 2893 2893 2895 2894 2891 2891 2892 2892 2890 2890 2890 2889 2890 2890 2890 2893 2892 2883
2896 2891 2886 2881 2877 2873 2868 2862 2858 2856 2855 2857 2862 2866 2871 2873 2876 2879 2881 2883 2884 2884 2883 2882 2878 2879 2882 2884 2886 2889 2890 2890 2890 2888 2886 2885 2885 2886 2887 2888 2889 2888 2887 2889 2887 2883 2878
2896 2891 2886 2881 2877 2873 2869 2865 2861 2858 2857 2859 2863 2865 2868 2872 2875 2876 2876 2877 2879 2881 2881 2879 2877 2877 2876 2877 2883 2886 2887 2888 2887 2886 2885 2883 2883 2884 2887 2886 2884 2884 2883 2882 2880 2878 2874